Location: Newark
(35.7127°N, 139.7618°E)
Time: 22:39:06
(UTC+00:00)

N. Korean satellite - Visible Passes

Search period start: 10 August 2020 00:00
Search period end: 20 August 2020 00:00
Orbit: 453 x 506 km, 97.2° (Epoch: 10 August)

Date Brightness Start Highest point End Pass type
(mag) Time Alt. Az. Time Alt. Az. Time Alt. Az.
10 Aug 9.9 19:14:26 10° ENE 19:15:47 12° E 19:17:08 10° ESE visible
13 Aug 9.5 19:28:53 10° NE 19:31:31 19° E 19:34:09 10° SE visible
17 Aug 9.7 19:19:06 10° ENE 19:21:09 14° E 19:23:13 10° SE visible
